Location: Krasnoyarskiy Pitomnik
(51.1333°N, 71.6167°E)
Time: 21:14:08
(UTC+00:00)

A-11 Canister half - Pass Details

Date: 26 April 2024
Orbit: 1525 x 1683 km, 47.3° (Epoch: 19 May)

Event Time Altitude Azimuth Distance (km) Brightness Sun altitude
Rises 04:39:02 0° 283° (WNW) 4,923 11.2 41.6°
Reaches altitude 10° 04:42:16 10° 279° (W) 3,942 10.9 42.0°
Maximum altitude 04:51:59 53° 207° (SSW) 1,994 10.4 43.2°
Drops below altitude 10° 05:01:38 10° 134° (SE) 3,916 12.2 44.3°
Sets 05:04:51 0° 130° (SE) 4,888 12.4 44.7°
